Location: G�rlitz
(51.1670°N, 15.0000°E)
Time: 18:18:42
(UTC+01:00)

ACS3 Solar Sail - Visible Passes

Search period start: 14 February 2026 00:00
Search period end: 24 February 2026 00:00
Orbit: 899 x 968 km, 97.2° (Epoch: 13 February)

Date Brightness Start Highest point End Pass type
(mag) Time Alt. Az. Time Alt. Az. Time Alt. Az.
14 Feb 4.3 01:53:36 10° NNE 01:54:08 13° NNE 01:54:08 13° NNE visible
14 Feb 3.8 03:36:46 10° N 03:37:53 15° N 03:37:53 15° N visible
15 Feb 4.2 02:06:02 10° NNE 02:06:49 14° NNE 02:06:49 14° NNE visible
15 Feb 3.8 03:49:27 10° N 03:50:35 15° NNW 03:50:35 15° NNW visible
16 Feb 4.1 02:18:27 10° NNE 02:19:28 16° NNE 02:19:28 16° NNE visible
16 Feb 3.8 04:02:08 10° N 04:03:13 14° NNW 04:03:13 14° NNW visible
17 Feb 3.9 02:30:51 10° N 02:32:04 17° N 02:32:04 17° N visible
17 Feb 3.8 04:14:53 10° NNW 04:15:49 13° NNW 04:15:49 13° NNW visible
18 Feb 3.8 02:43:15 10° N 02:44:38 18° N 02:44:38 18° N visible
18 Feb 3.8 04:27:43 10° NNW 04:28:23 11° NNW 04:28:23 11° NNW visible
19 Feb 4.5 01:13:11 10° NNE 01:13:24 11° NNE 01:13:24 11° NNE visible
19 Feb 3.7 02:55:37 10° N 02:57:09 19° N 02:57:09 19° N visible
19 Feb 3.8 04:40:52 10° NNW 04:40:54 10° NNW 04:40:54 10° NNW visible
20 Feb 4.3 01:25:16 10° NNE 01:25:53 13° NNE 01:25:53 13° NNE visible
20 Feb 3.6 03:07:59 10° N 03:09:38 19° N 03:09:38 19° N visible
21 Feb 4.2 01:37:22 10° NNE 01:38:19 15° NNE 01:38:19 15° NNE visible
21 Feb 3.6 03:20:19 10° N 03:22:03 19° NNW 03:22:03 19° NNW visible
22 Feb 4.0 01:49:28 10° NNE 01:50:43 17° NNE 01:50:43 17° NNE visible
22 Feb 3.6 03:32:40 10° N 03:34:27 18° NNW 03:34:27 18° NNW visible
23 Feb 3.9 02:01:34 10° NNE 02:03:04 19° NNE 02:03:04 19° NNE visible
23 Feb 3.6 03:45:01 10° N 03:46:48 17° NNW 03:46:48 17° NNW visible
